Time,TemperatureF,DewpointF,PressureIn,WindDirection,WindDirectionDegrees,WindSpeedMPH,WindSpeedGustMPH,Humidity,HourlyPrecipIn,Conditions,Clouds,dailyrainin,SoftwareType,DateUTC
2013-04-27 00:02:00,72.0,67.0,30.05,SE,132,12.0,-999.0,84,0.00,,,0.00,,2013-04-27 05:02:00,
2013-04-27 00:12:00,72.0,67.0,30.05,SE,132,12.0,-999.0,84,0.00,,,0.00,,2013-04-27 05:12:00,
2013-04-27 00:22:00,72.0,67.0,30.05,SE,132,12.0,-999.0,84,0.00,,,0.00,,2013-04-27 05:22:00,
2013-04-27 00:32:00,71.0,67.0,30.03,SE,130,6.0,-999.0,86,0.00,,,0.00,,2013-04-27 05:32:00,
2013-04-27 00:42:00,71.0,67.0,30.03,SE,130,6.0,-999.0,86,0.00,,,0.00,,2013-04-27 05:42:00,
2013-04-27 00:52:00,71.0,67.0,30.03,SE,138,8.0,-999.0,86,0.00,,,0.00,,2013-04-27 05:52:00,
2013-04-27 01:01:00,72.0,68.0,30.04,SSE,168,9.0,-999.0,86,0.00,,,0.00,,2013-04-27 06:01:00,
2013-04-27 01:12:00,72.0,68.0,30.04,SSE,168,9.0,-999.0,86,0.00,,,0.00,,2013-04-27 06:12:00,
2013-04-27 01:22:00,72.0,68.0,30.05,SSE,161,4.0,-999.0,86,0.00,,,0.00,,2013-04-27 06:22:00,
2013-04-27 01:32:00,72.0,67.0,30.06,South,174,3.0,-999.0,85,0.00,,,0.00,,2013-04-27 06:32:00,
2013-04-27 01:41:00,72.0,67.0,30.06,South,174,3.0,-999.0,85,0.00,,,0.00,,2013-04-27 06:41:00,
2013-04-27 01:52:00,72.0,67.0,30.06,SSE,166,7.0,-999.0,85,0.00,,,0.00,,2013-04-27 06:52:00,
2013-04-27 02:01:00,72.0,67.0,30.05,SSE,148,8.0,-999.0,85,0.00,,,0.00,,2013-04-27 07:01:00,
2013-04-27 02:11:00,72.0,67.0,30.05,SSE,148,8.0,-999.0,85,0.00,,,0.00,,2013-04-27 07:11:00,
2013-04-27 02:21:00,72.0,67.0,30.04,SSE,151,5.0,-999.0,85,0.00,,,0.00,,2013-04-27 07:21:00,
2013-04-27 02:31:00,72.0,68.0,30.03,SE,138,6.0,-999.0,86,0.00,,,0.00,,2013-04-27 07:31:00,
2013-04-27 02:42:00,72.0,68.0,30.03,SE,138,6.0,-999.0,86,0.00,,,0.00,,2013-04-27 07:42:00,
2013-04-27 02:52:00,72.0,68.0,30.02,South,169,7.0,-999.0,86,0.00,,,0.00,,2013-04-27 07:52:00,
2013-04-27 03:01:00,72.0,68.0,30.01,SSE,149,6.0,-999.0,87,0.00,,,0.00,,2013-04-27 08:01:00,
2013-04-27 03:11:00,72.0,68.0,30.01,SSE,149,6.0,-999.0,87,0.00,,,0.00,,2013-04-27 08:11:00,
2013-04-27 03:21:00,71.0,67.0,30.00,SSE,153,7.0,-999.0,87,0.00,,,0.00,,2013-04-27 08:21:00,
2013-04-27 03:33:00,71.0,67.0,30.00,SSE,150,9.0,-999.0,88,0.00,,,0.00,,2013-04-27 08:33:00,
2013-04-27 03:41:00,71.0,67.0,30.00,SSE,150,9.0,-999.0,88,0.00,,,0.00,,2013-04-27 08:41:00,
2013-04-27 03:52:00,70.0,67.0,29.99,SE,142,7.0,-999.0,89,0.00,,,0.00,,2013-04-27 08:52:00,
2013-04-27 04:01:00,70.0,67.0,30.00,SSE,161,4.0,-999.0,89,0.00,,,0.00,,2013-04-27 09:01:00,
2013-04-27 04:11:00,70.0,67.0,30.00,SSE,161,4.0,-999.0,89,0.00,,,0.00,,2013-04-27 09:11:00,
2013-04-27 04:21:00,70.0,67.0,29.99,SSE,167,3.0,-999.0,90,0.00,,,0.00,,2013-04-27 09:21:00,
2013-04-27 04:33:00,70.0,67.0,30.00,South,184,3.0,-999.0,90,0.00,,,0.00,,2013-04-27 09:33:00,
2013-04-27 04:42:00,70.0,67.0,30.00,South,184,3.0,-999.0,90,0.00,,,0.00,,2013-04-27 09:42:00,
2013-04-27 04:53:00,69.0,66.0,29.99,SSE,158,2.0,-999.0,91,0.00,,,0.00,,2013-04-27 09:53:00,
2013-04-27 05:02:00,68.0,66.0,29.98,South,182,4.0,-999.0,92,0.00,,,0.00,,2013-04-27 10:02:00,
2013-04-27 05:12:00,68.0,66.0,29.98,South,182,4.0,-999.0,92,0.00,,,0.00,,2013-04-27 10:12:00,
2013-04-27 05:22:00,68.0,66.0,29.98,South,182,1.0,-999.0,92,0.00,,,0.00,,2013-04-27 10:22:00,
2013-04-27 05:32:00,68.0,66.0,29.99,South,184,0.0,-999.0,93,0.00,,,0.00,,2013-04-27 10:32:00,
2013-04-27 05:42:00,68.0,66.0,29.99,South,184,0.0,-999.0,93,0.00,,,0.00,,2013-04-27 10:42:00,
2013-04-27 05:52:00,68.0,66.0,29.99,South,184,0.0,-999.0,93,0.00,,,0.00,,2013-04-27 10:52:00,
2013-04-27 06:02:00,68.0,66.0,29.99,South,184,0.0,-999.0,93,0.00,,,0.00,,2013-04-27 11:02:00,
2013-04-27 06:11:00,68.0,66.0,29.99,South,184,0.0,-999.0,93,0.00,,,0.00,,2013-04-27 11:11:00,
2013-04-27 06:22:00,68.0,66.0,29.99,South,184,0.0,-999.0,93,0.00,,,0.00,,2013-04-27 11:22:00,
2013-04-27 06:31:00,68.0,66.0,29.99,South,184,0.0,-999.0,93,0.00,,,0.00,,2013-04-27 11:31:00,
2013-04-27 06:41:00,68.0,66.0,29.99,South,184,0.0,-999.0,93,0.00,,,0.00,,2013-04-27 11:41:00,
2013-04-27 06:52:00,68.0,66.0,30.00,South,184,0.0,-999.0,93,0.00,,,0.00,,2013-04-27 11:52:00,
2013-04-27 07:01:00,68.0,66.0,30.00,South,184,0.0,-999.0,93,0.00,,,0.00,,2013-04-27 12:01:00,
2013-04-27 07:11:00,68.0,66.0,30.00,South,184,0.0,-999.0,93,0.00,,,0.00,,2013-04-27 12:11:00,
2013-04-27 07:22:00,68.0,66.0,30.00,South,184,0.0,-999.0,94,0.00,,,0.00,,2013-04-27 12:22:00,
2013-04-27 07:32:00,67.0,65.0,30.01,South,184,0.0,-999.0,94,0.00,,,0.00,,2013-04-27 12:32:00,
2013-04-27 07:42:00,67.0,65.0,30.01,South,184,0.0,-999.0,94,0.00,,,0.00,,2013-04-27 12:42:00,
2013-04-27 07:52:00,68.0,66.0,30.02,South,184,0.0,-999.0,94,0.00,,,0.00,,2013-04-27 12:52:00,
2013-04-27 08:02:00,68.0,66.0,30.03,WSW,245,1.0,-999.0,94,0.00,,,0.00,,2013-04-27 13:02:00,
2013-04-27 08:11:00,68.0,66.0,30.03,WSW,245,1.0,-999.0,94,0.00,,,0.00,,2013-04-27 13:11:00,
2013-04-27 08:21:00,68.0,66.0,30.04,North,355,3.0,-999.0,94,0.00,,,0.00,,2013-04-27 13:21:00,
2013-04-27 08:32:00,69.0,67.0,30.04,North,355,2.0,-999.0,94,0.00,,,0.00,,2013-04-27 13:32:00,
2013-04-27 08:41:00,69.0,67.0,30.04,North,355,2.0,-999.0,94,0.00,,,0.00,,2013-04-27 13:41:00,
2013-04-27 08:52:00,69.0,67.0,30.04,NNE,19,4.0,-999.0,94,0.00,,,0.00,,2013-04-27 13:52:00,
2013-04-27 09:02:00,69.0,67.0,30.05,North,5,3.0,-999.0,93,0.00,,,0.00,,2013-04-27 14:02:00,
2013-04-27 09:11:00,69.0,67.0,30.05,North,5,3.0,-999.0,93,0.00,,,0.00,,2013-04-27 14:11:00,
2013-04-27 09:21:00,69.0,67.0,30.05,NNE,17,2.0,-999.0,93,0.00,,,0.00,,2013-04-27 14:21:00,
2013-04-27 09:31:00,70.0,68.0,30.05,NE,42,3.0,-999.0,92,0.00,,,0.00,,2013-04-27 14:31:00,
2013-04-27 09:41:00,70.0,68.0,30.05,NE,42,3.0,-999.0,92,0.00,,,0.00,,2013-04-27 14:41:00,
2013-04-27 09:52:00,70.0,68.0,30.05,NE,46,3.0,-999.0,92,0.00,,,0.00,,2013-04-27 14:52:00,
2013-04-27 10:01:00,71.0,68.0,30.05,NNE,26,4.0,-999.0,90,0.00,,,0.00,,2013-04-27 15:01:00,
2013-04-27 10:11:00,71.0,68.0,30.05,NNE,26,4.0,-999.0,90,0.00,,,0.00,,2013-04-27 15:11:00,
2013-04-27 10:22:00,72.0,69.0,30.05,NE,50,3.0,-999.0,90,0.00,,,0.00,,2013-04-27 15:22:00,
2013-04-27 10:33:00,72.0,68.0,30.05,NE,48,4.0,-999.0,88,0.00,,,0.00,,2013-04-27 15:33:00,
2013-04-27 10:42:00,72.0,68.0,30.05,NE,48,4.0,-999.0,88,0.00,,,0.00,,2013-04-27 15:42:00,
2013-04-27 10:53:00,72.0,68.0,30.05,ENE,71,4.0,-999.0,88,0.00,,,0.00,,2013-04-27 15:53:00,
2013-04-27 11:03:00,72.0,68.0,30.05,ENE,72,3.0,-999.0,87,0.00,,,0.00,,2013-04-27 16:03:00,
2013-04-27 11:13:00,72.0,68.0,30.05,ENE,72,3.0,-999.0,87,0.00,,,0.00,,2013-04-27 16:13:00,
2013-04-27 11:22:00,72.0,68.0,30.06,ESE,114,3.0,-999.0,88,0.00,,,0.00,,2013-04-27 16:22:00,
2013-04-27 11:32:00,72.0,68.0,30.06,East,90,2.0,-999.0,87,0.00,,,0.00,,2013-04-27 16:32:00,
2013-04-27 11:42:00,72.0,68.0,30.06,East,90,2.0,-999.0,87,0.00,,,0.00,,2013-04-27 16:42:00,
2013-04-27 11:53:00,73.0,69.0,30.06,ESE,108,3.0,-999.0,87,0.00,,,0.00,,2013-04-27 16:53:00,
2013-04-27 12:02:00,73.0,69.0,30.06,SE,129,4.0,-999.0,86,0.00,,,0.00,,2013-04-27 17:02:00,
2013-04-27 12:12:00,73.0,69.0,30.06,SE,129,4.0,-999.0,86,0.00,,,0.00,,2013-04-27 17:12:00,
2013-04-27 12:22:00,73.0,68.0,30.05,SE,143,1.0,-999.0,84,0.00,,,0.00,,2013-04-27 17:22:00,
2013-04-27 12:32:00,73.0,68.0,30.05,SE,143,1.0,-999.0,84,0.00,,,0.00,,2013-04-27 17:32:00,
2013-04-27 12:42:00,73.0,68.0,30.05,SE,143,1.0,-999.0,84,0.00,,,0.00,,2013-04-27 17:42:00,
2013-04-27 12:53:00,74.0,68.0,30.04,ESE,115,5.0,-999.0,83,0.00,,,0.00,,2013-04-27 17:53:00,
2013-04-27 13:02:00,73.0,69.0,30.04,ENE,59,4.0,-999.0,86,0.00,,,0.00,,2013-04-27 18:02:00,
2013-04-27 13:12:00,73.0,69.0,30.04,ENE,59,4.0,-999.0,86,0.00,,,0.00,,2013-04-27 18:12:00,
2013-04-27 13:22:00,73.0,69.0,30.03,ENE,74,4.0,-999.0,86,0.00,,,0.00,,2013-04-27 18:22:00,
2013-04-27 13:32:00,74.0,68.0,30.03,East,97,2.0,-999.0,82,0.00,,,0.00,,2013-04-27 18:32:00,
2013-04-27 13:41:00,74.0,68.0,30.03,East,97,2.0,-999.0,82,0.00,,,0.00,,2013-04-27 18:41:00,
2013-04-27 13:51:00,75.0,69.0,30.02,East,92,3.0,-999.0,82,0.00,,,0.00,,2013-04-27 18:51:00,
2013-04-27 14:02:00,76.0,69.0,30.01,SE,125,4.0,-999.0,80,0.00,,,0.00,,2013-04-27 19:02:00,
2013-04-27 14:11:00,76.0,69.0,30.01,SE,125,4.0,-999.0,80,0.00,,,0.00,,2013-04-27 19:11:00,
2013-04-27 14:21:00,77.0,69.0,30.00,East,90,6.0,-999.0,76,0.00,,,0.00,,2013-04-27 19:21:00,
2013-04-27 14:32:00,77.0,69.0,29.99,NNE,31,1.0,-999.0,76,0.00,,,0.00,,2013-04-27 19:32:00,
2013-04-27 14:42:00,77.0,69.0,29.99,NNE,31,1.0,-999.0,76,0.00,,,0.00,,2013-04-27 19:42:00,
2013-04-27 14:53:00,77.0,68.0,29.98,North,350,5.0,-999.0,75,0.00,,,0.00,,2013-04-27 19:53:00,
2013-04-27 15:02:00,78.0,69.0,29.98,NNE,17,5.0,-999.0,75,0.00,,,0.00,,2013-04-27 20:02:00,
2013-04-27 15:11:00,78.0,69.0,29.98,NNE,17,5.0,-999.0,75,0.00,,,0.00,,2013-04-27 20:11:00,
2013-04-27 15:21:00,78.0,69.0,29.98,NNW,328,3.0,-999.0,73,0.00,,,0.00,,2013-04-27 20:21:00,
2013-04-27 15:32:00,78.0,69.0,29.98,NNW,342,4.0,-999.0,73,0.00,,,0.00,,2013-04-27 20:32:00,
2013-04-27 15:42:00,78.0,69.0,29.98,NNW,342,4.0,-999.0,73,0.00,,,0.00,,2013-04-27 20:42:00,
2013-04-27 15:52:00,80.0,70.0,29.96,ENE,74,5.0,-999.0,72,0.00,,,0.00,,2013-04-27 20:52:00,
2013-04-27 16:02:00,80.0,69.0,29.96,NNE,13,3.0,-999.0,69,0.00,,,0.00,,2013-04-27 21:02:00,
2013-04-27 16:11:00,80.0,69.0,29.96,NNE,13,3.0,-999.0,69,0.00,,,0.00,,2013-04-27 21:11:00,
2013-04-27 16:21:00,79.0,68.0,29.95,North,5,1.0,-999.0,69,0.00,,,0.00,,2013-04-27 21:21:00,
2013-04-27 16:32:00,79.0,68.0,29.95,ENE,63,4.0,-999.0,68,0.00,,,0.00,,2013-04-27 21:32:00,
2013-04-27 16:42:00,79.0,68.0,29.95,ENE,63,4.0,-999.0,68,0.00,,,0.00,,2013-04-27 21:42:00,
2013-04-27 16:53:00,79.0,68.0,29.93,NE,48,2.0,-999.0,68,0.00,,,0.00,,2013-04-27 21:53:00,
2013-04-27 17:02:00,79.0,69.0,29.92,ENE,71,3.0,-999.0,71,0.00,,,0.00,,2013-04-27 22:02:00,
2013-04-27 17:12:00,79.0,69.0,29.92,ENE,71,3.0,-999.0,71,0.00,,,0.00,,2013-04-27 22:12:00,
2013-04-27 17:22:00,78.0,69.0,29.93,East,93,3.0,-999.0,73,0.00,,,0.00,,2013-04-27 22:22:00,
2013-04-27 17:32:00,78.0,68.0,29.92,East,94,2.0,-999.0,72,0.00,,,0.00,,2013-04-27 22:32:00,
2013-04-27 17:42:00,78.0,68.0,29.92,East,94,2.0,-999.0,72,0.00,,,0.00,,2013-04-27 22:42:00,
2013-04-27 17:52:00,78.0,68.0,29.92,East,94,2.0,-999.0,72,0.00,,,0.00,,2013-04-27 22:52:00,
2013-04-27 18:02:00,78.0,68.0,29.91,East,94,1.0,-999.0,71,0.00,,,0.00,,2013-04-27 23:02:00,
2013-04-27 18:11:00,78.0,68.0,29.91,East,94,1.0,-999.0,71,0.00,,,0.00,,2013-04-27 23:11:00,
2013-04-27 18:22:00,78.0,68.0,29.91,East,101,2.0,-999.0,71,0.00,,,0.00,,2013-04-27 23:22:00,
2013-04-27 18:32:00,79.0,68.0,29.90,ESE,105,4.0,-999.0,70,0.00,,,0.00,,2013-04-27 23:32:00,
2013-04-27 18:42:00,79.0,68.0,29.90,ESE,105,4.0,-999.0,70,0.00,,,0.00,,2013-04-27 23:42:00,
2013-04-27 18:52:00,79.0,69.0,29.90,SE,136,3.0,-999.0,71,0.00,,,0.00,,2013-04-27 23:52:00,
2013-04-27 19:01:00,79.0,69.0,29.90,SE,141,1.0,-999.0,71,0.00,,,0.00,,2013-04-28 00:01:00,
2013-04-27 19:11:00,79.0,69.0,29.90,SE,141,1.0,-999.0,71,0.00,,,0.00,,2013-04-28 00:11:00,
2013-04-27 19:21:00,79.0,68.0,29.90,SE,138,3.0,-999.0,70,0.00,,,0.00,,2013-04-28 00:21:00,
2013-04-27 19:31:00,78.0,68.0,29.90,SE,141,2.0,-999.0,71,0.00,,,0.00,,2013-04-28 00:31:00,
2013-04-27 19:42:00,78.0,68.0,29.90,SE,141,2.0,-999.0,71,0.00,,,0.00,,2013-04-28 00:42:00,
2013-04-27 19:52:00,78.0,69.0,29.91,East,100,7.0,-999.0,75,0.00,,,0.00,,2013-04-28 00:52:00,
2013-04-27 20:01:00,74.0,69.0,29.91,East,94,10.0,-999.0,84,0.00,,,0.00,,2013-04-28 01:01:00,
2013-04-27 20:11:00,72.0,67.0,29.91,East,95,9.0,-999.0,84,0.00,,,0.00,,2013-04-28 01:11:00,
2013-04-27 20:21:00,72.0,67.0,29.91,East,95,9.0,-999.0,84,0.00,,,0.00,,2013-04-28 01:21:00,
2013-04-27 20:31:00,71.0,67.0,29.90,ESE,103,5.0,-999.0,86,0.00,,,0.00,,2013-04-28 01:31:00,
2013-04-27 20:42:00,71.0,67.0,29.90,ESE,103,5.0,-999.0,86,0.00,,,0.00,,2013-04-28 01:42:00,
2013-04-27 20:52:00,71.0,67.0,29.90,East,89,2.0,-999.0,86,0.00,,,0.00,,2013-04-28 01:52:00,
2013-04-27 21:01:00,71.0,67.0,29.90,ENE,67,3.0,-999.0,86,0.00,,,0.00,,2013-04-28 02:01:00,
2013-04-27 21:12:00,71.0,67.0,29.90,ENE,67,3.0,-999.0,86,0.00,,,0.00,,2013-04-28 02:12:00,
2013-04-27 21:22:00,70.0,66.0,29.93,East,82,14.0,-999.0,86,0.00,,,0.00,,2013-04-28 02:22:00,
2013-04-27 21:32:00,70.0,66.0,29.93,ENE,71,7.0,-999.0,88,0.00,,,0.00,,2013-04-28 02:32:00,
2013-04-27 21:42:00,70.0,66.0,29.93,ENE,71,7.0,-999.0,88,0.00,,,0.00,,2013-04-28 02:42:00,
2013-04-27 21:52:00,69.0,66.0,29.95,East,100,5.0,-999.0,90,0.00,,,0.00,,2013-04-28 02:52:00,
2013-04-27 22:01:00,69.0,66.0,29.96,NE,42,3.0,-999.0,90,0.00,,,0.00,,2013-04-28 03:01:00,
2013-04-27 22:11:00,69.0,66.0,29.96,NE,42,3.0,-999.0,90,0.00,,,0.00,,2013-04-28 03:11:00,
2013-04-27 22:21:00,69.0,66.0,29.95,East,82,6.0,-999.0,91,0.00,,,0.00,,2013-04-28 03:21:00,
2013-04-27 22:32:00,69.0,66.0,29.98,ESE,119,8.0,-999.0,91,0.00,,,0.00,,2013-04-28 03:32:00,
2013-04-27 22:42:00,69.0,66.0,29.98,ESE,119,8.0,-999.0,91,0.00,,,0.00,,2013-04-28 03:42:00,
2013-04-27 22:53:00,68.0,65.0,29.96,ESE,117,11.0,-999.0,91,0.00,,,0.00,,2013-04-28 03:53:00,
2013-04-27 23:02:00,68.0,65.0,29.96,East,88,9.0,-999.0,91,0.00,,,0.00,,2013-04-28 04:02:00,
2013-04-27 23:13:00,68.0,65.0,29.96,East,88,9.0,-999.0,91,0.00,,,0.00,,2013-04-28 04:13:00,
2013-04-27 23:22:00,67.0,65.0,29.98,East,86,5.0,-999.0,92,0.00,,,0.01,,2013-04-28 04:22:00,
2013-04-27 23:32:00,67.0,65.0,29.99,South,191,7.0,-999.0,92,0.00,,,0.01,,2013-04-28 04:32:00,
2013-04-27 23:42:00,67.0,65.0,29.99,South,191,7.0,-999.0,92,0.00,,,0.01,,2013-04-28 04:42:00,
2013-04-27 23:53:00,67.0,65.0,30.03,NNW,327,3.0,-999.0,93,0.63,,,0.05,,2013-04-28 04:53:00,